User: anonymous   Login
Location: Chuathbaluk
(61.5726°N, 159.2454°W)
Time: 12:01:40
(UTC+00:00)
Language:

N. Korean satellite - Orbit

View from above orbital plane
View from above orbital plane
View from above satellite
View from above satellite

Ground track
Ground track

The orbit data is extracted from the following two-line orbital elements,

1 39026U 12072A   20339.74953559  .00004251  00000-0  14959-3 0  9999
2 39026  97.2334 331.6548 0036692   1.1571 358.9748 15.29222332443265
Epoch (UTC): 04 December 2020 17:59:19
Eccentricity: 0.0036692
inclination: 97.2334°
perigee height: 453 km
apogee height: 503 km
right ascension of ascending node: 331.6548°
argument of perigee: 1.1571°
revolutions per day: 15.29222332
mean anomaly at epoch: 358.9748°
orbit number at epoch: 44326

The dashed part of the orbit path shows where the satellite is in the earth's shadow,  

DLR